Weather Roundup
Issued by NWS

Home | Current Version | Previous Version | Text Only | Print | Product List | Glossary On
Versions: 1 2 3 4 5 6 7 8 9 10 11 12 13 14 15 16 17 18 19 20 21 22 23 24 25 26 27 28 29 30 31 32 33 34 35 36 37 38 39 40 41 42 43 44 45 46 47 48 49 50
000
NZUS93 KARX 041710
HRRWXR

CURRENT HOURLY OBSERVATIONS ACROSS
MUCH OF THE UPPER MISSISSIPPI VALLEY
NATIONAL WEATHER SERVICE LA CROSSE WI
1200 PM CDT MON MAY 04 2015


...SOUTHEAST MINNESOTA...


CITY           SKY/WX    TMP DP  RH WIND       PRES   REMARKS
ROCHESTER      MOSUNNY   63  37  38 NE15G22   30.19R
ROCHESTER/MAYO FAIR      64  35  34 N13G18    30.18R
WINONA         MOSUNNY   66  36  32 NE9       30.17R
AUSTIN         MOSUNNY   63  39  42 NE13G20   30.17R
ALBERT LEA     MOSUNNY   64  37  36 NE15G21   30.18R
DODGE CENTER   MOSUNNY   64  36  34 NE12G20   30.18S
PRESTON        PTSUNNY   62  38  41 NE12G17   30.18R
OWATONNA       MOSUNNY   64  32  29 N15G21    30.19R
FARIBAULT      SUNNY     64  34  32 NE14G20   30.20R
$$

...ELSEWHERE IN MINNESOTA...


CITY           SKY/WX    TMP DP  RH WIND       PRES   REMARKS
MINNEAPOLIS    MOSUNNY   66  33  29 N15G23    30.19S
INTNL FALLS    SUNNY     58  30  34 NE10      30.21R
DULUTH         MOSUNNY   61  25  25 N13       30.19R
RED WING       SUNNY     66  30  26 NE12G17   30.17R
REDWOOD FALLS  MOSUNNY   69  26  20 N9G18     30.19R
MANKATO        SUNNY     64  34  32 NE12      30.20R
WORTHINGTON    MOSUNNY   66  30  26 E15G24    30.18S
FAIRMONT       MOSUNNY   66  28  24 NE15G24   30.17S
$$

...SOUTHWEST WISCONSIN...


CITY           SKY/WX    TMP DP  RH WIND       PRES   REMARKS
LA CROSSE      MOSUNNY   70  36  28 N10       30.14R
PRAIRIE DU CHI PTSUNNY   67  53  59 CALM      30.13R
BOSCOBEL       PTSUNNY   73  52  47 VRB5      30.12R
LONE ROCK      MOSUNNY   71  50  47 VRB7      30.12R
PLATTEVILLE    PTSUNNY   68  59  74 N8        30.12S
FORT MC COY    SUNNY     68  34  28 N8        30.15S
CAMP DOUGLAS   MOSUNNY   70  41  35 N8        30.13R
VIROQUA        FAIR      65  44  46 N12       30.15R
WIS DELLS      NOT AVBL
$$

...ELSEWHERE IN WISCONSIN...


CITY           SKY/WX    TMP DP  RH WIND       PRES   REMARKS
MILWAUKEE      CLOUDY    67  57  70 E8        30.10R
MADISON        PTSUNNY   69  55  60 N9        30.11R
GREEN BAY      SUNNY     70  42  36 E12       30.10R
EAU CLAIRE     SUNNY     66  32  28 N8        30.17R
BLACK RVR FLS  FAIR      68  30  24 N10       30.15R
MEDFORD        SUNNY     61  35  37 NW8       30.16R
WAUSAU         SUNNY     65  37  35 NW9       30.13R
WIS RAPIDS     SUNNY     68  32  26 VRB7G17   30.15R
MARSHFIELD     SUNNY     66  39  37 NW14      30.15R
RICE LAKE      MOSUNNY   64  24  21 NW14G20   30.20R
$$

...NORTHEAST IOWA...


CITY           SKY/WX    TMP DP  RH WIND       PRES   REMARKS
DECORAH        PTSUNNY   64  43  45 N13G18    30.14S
MASON CITY     MOSUNNY   66  43  43 NE17      30.17R
CHARLES CITY   MOSUNNY   64  45  48 NE18G25   30.15S
OELWEIN        MOSUNNY   66  57  72 NE18      30.13S
$$

...ELSEWHERE IN IOWA...


CITY           SKY/WX    TMP DP  RH WIND       PRES   REMARKS
DES MOINES     CLOUDY    69  58  67 NE13      30.07F
IOWA CITY      CLOUDY    69  62  78 NE8       30.11R
FORT DODGE     PTSUNNY   64  46  52 NE15      30.14F
$$

...NORTHERN ILLINOIS...


CITY           SKY/WX    TMP DP  RH WIND       PRES   REMARKS
CHICAGO-OHARE  CLOUDY    69  58  67 NW9       30.09S
CHICAGO-MIDWAY PTSUNNY   73  58  59 VRB6      30.10R
MOLINE         PTSUNNY   75  62  64 N3        30.09R
ROCKFORD       CLOUDY    70  57  63 VRB3      30.12S
PEORIA         CLOUDY    69  63  81 W6        30.10R
$$

NOTE: "FAIR" INDICATES FEW OR NO CLOUDS BELOW 12,000 FEET WITH NO
SIGNIFICANT WEATHER AND/OR OBSTRUCTIONS TO VISIBILITY. WIND
SPEEDS ARE IN MILES-PER-HOUR.



USA.gov is the U.S. government's official web portal to all federal, state and local government web resources and services.